KT2UU-13 Weather Reports


time (UTC)temp
F
wind
direction
speed
knots
gust
knots
rain 1hr
in
rain 24hr
in
rain mn
in
humidity
%
barometer
mb
20260902161825 90 204 0.0 0.9 0.00 0.00 0.00 67 1021.2
20260902161321 90 210 0.9 1.7 0.00 0.00 0.00 67 1021.2
20260902160817 91 217 1.7 1.7 0.00 0.00 0.00 68 1021.2
20260902160312 91 213 0.0 0.0 0.00 0.00 0.00 67 1021.3
20260902155810 89 216 0.0 0.9 0.00 0.00 0.00 70 1021.2
20260902155309 89 210 0.0 1.7 0.00 0.00 0.00 72 1021.5
20260902154804 89 216 0.9 1.7 0.00 0.00 0.00 71 1021.3
20260902154300 89 205 0.0 0.9 0.00 0.00 0.00 71 1021.3
20260902153758 88 205 0.0 0.0 0.00 0.00 0.00 73 1021.4
20260902153253 87 215 0.0 0.9 0.00 0.00 0.00 74 1021.4
20260902152749 88 217 0.9 2.6 0.00 0.00 0.00 71 1021.5
20260902152244 88 215 0.9 1.7 0.00 0.00 0.00 72 1021.2
20260902151739 87 215 0.9 1.7 0.00 0.00 0.00 74 1021.4
20260902151234 87 217 0.9 1.7 0.00 0.00 0.00 75 1021.4
20260902150729 87 213 0.0 0.9 0.00 0.00 0.00 74 1021.4
20260902150225 86 212 0.9 2.6 0.00 0.00 0.00 76 1021.2
20260902145724 86 215 0.9 1.7 0.00 0.00 0.00 77 1021.3
20260902145219 86 212 0.9 1.7 0.00 0.00 0.00 78 1021.3
20260902144715 85 215 1.7 2.6 0.00 0.00 0.00 79 1021.2
20260902144210 85 205 0.0 1.7 0.00 0.00 0.00 79 1021.1
20260902143706 85 213 0.9 1.7 0.00 0.00 0.00 80 1021.1
20260902143201 85 215 0.0 0.0 0.00 0.00 0.00 80 1021.2
20260902142656 85 216 0.0 0.0 0.00 0.00 0.00 79 1021.1
20260902142152 85 215 0.0 0.0 0.00 0.00 0.00 80 1021.2
20260902141652 85 215 0.0 0.0 0.00 0.00 0.00 81 1021.1
20260902141147 84 215 0.0 0.0 0.00 0.00 0.00 83 1021.2
20260902140642 84 215 0.0 0.0 0.00 0.00 0.00 83 1021.3
20260902140137 83 216 0.0 0.0 0.00 0.00 0.00 83 1021.1
20260902135636 83 209 0.0 0.0 0.00 0.00 0.00 82 1021.1
20260902135132 83 215 0.0 0.0 0.00 0.00 0.00 83 1021.3
20260902134627 82 215 0.0 0.0 0.00 0.00 0.00 84 1021.2
20260902134121 82 216 0.0 0.0 0.00 0.00 0.00 83 1021.3
20260902133622 82 215 0.0 0.0 0.00 0.00 0.00 85 1021.3
20260902133121 81 215 0.0 0.0 0.00 0.00 0.00 86 1021.2
20260902132618 81 215 0.0 0.0 0.00 0.00 0.00 86 1021.4
20260902132113 80 215 0.0 0.0 0.00 0.00 0.00 87 1021.3
20260902131609 80 215 0.0 0.0 0.00 0.00 0.00 86 1021.4
20260902131103 81 215 0.0 0.0 0.00 0.00 0.00 87 1021.2
20260902130559 81 215 0.0 0.0 0.00 0.00 0.00 86 1021.1
20260902130054 81 215 0.0 0.0 0.00 0.00 0.00 86 1021.1
20260902125550 80 215 0.0 0.0 0.00 0.00 0.00 87 1021.2
20260902125045 80 215 0.0 0.0 0.00 0.00 0.00 87 1021.1
20260902124543 79 215 0.0 0.0 0.00 0.00 0.00 89 1021.0
20260902124042 79 215 0.0 0.0 0.00 0.00 0.00 90 1021.1
20260902123538 78 215 0.0 0.0 0.00 0.00 0.00 91 1021.2
20260902123037 77 215 0.0 0.0 0.00 0.00 0.00 92 1021.0
20260902122532 76 215 0.0 0.0 0.00 0.00 0.00 96 1021.0
20260902122027 75 215 0.0 0.0 0.00 0.00 0.00 96 1021.1
20260902121522 74 215 0.0 0.0 0.00 0.00 0.00 98 1020.8
20260902121017 74 208 0.0 0.0 0.00 0.00 0.00 99 1020.8
20260902120514 73 215 0.0 0.0 0.00 0.00 0.00 99 1020.9
20260902120009 72 215 0.0 0.0 0.00 0.00 0.00 99 1021.0
20260902115504 72 215 0.0 0.0 0.00 0.00 0.00 99 1020.9
20260902115001 72 215 0.0 0.0 0.00 0.00 0.00 99 1020.9
20260902114456 71 215 0.0 0.0 0.00 0.00 0.00 99 1020.7
20260902113950 71 215 0.0 0.0 0.00 0.00 0.00 99 1020.7
20260902113447 71 215 0.0 0.0 0.00 0.00 0.00 99 1020.7
20260902112946 71 215 0.0 0.0 0.00 0.00 0.00 99 1020.8
20260902112442 71 215 0.0 0.0 0.00 0.00 0.00 99 1020.7
20260902111938 71 215 0.0 0.0 0.00 0.00 0.00 99 1020.6
20260902111434 71 215 0.0 0.0 0.00 0.00 0.00 99 1020.4
20260902110930 71 215 0.0 0.0 0.00 0.00 0.00 99 1020.6
20260902110425 71 215 0.0 0.0 0.00 0.00 0.00 99 1020.6
20260902105920 71 215 0.0 0.0 0.00 0.00 0.00 99 1020.5
20260902105415 71 215 0.0 0.0 0.00 0.00 0.00 99 1020.5
20260902104909 71 215 0.0 0.0 0.00 0.00 0.00 99 1020.3
20260902104405 71 215 0.0 0.0 0.00 0.00 0.00 99 1020.3
20260902103900 71 215 0.0 0.0 0.00 0.00 0.00 99 1020.2
20260902103354 72 215 0.0 0.0 0.00 0.00 0.00 99 1020.3
20260902102849 72 215 0.0 0.0 0.00 0.00 0.00 99 1020.2
20260902102348 71 215 0.0 0.0 0.00 0.00 0.00 99 1020.2
20260902101842 72 215 0.0 0.0 0.00 0.00 0.00 99 1020.1
20260902101336 71 215 0.0 0.0 0.00 0.00 0.00 99 1020.3
20260902100830 71 215 0.0 0.0 0.00 0.00 0.00 99 1020.3
20260902100324 72 215 0.0 0.0 0.00 0.00 0.00 99 1020.2
20260902095819 72 215 0.0 0.0 0.00 0.00 0.00 99 1020.2
20260902095314 72 215 0.0 0.0 0.00 0.00 0.00 99 1020.2
20260902094808 71 215 0.0 0.0 0.00 0.00 0.00 99 1020.2
20260902094305 72 215 0.0 0.0 0.00 0.00 0.00 99 1020.1
20260902093804 71 215 0.0 0.0 0.00 0.00 0.00 99 1020.1
20260902093259 71 215 0.0 0.0 0.00 0.00 0.00 99 1020.0
20260902092758 72 215 0.0 0.0 0.00 0.00 0.00 99 1020.1
20260902092254 72 215 0.0 0.0 0.00 0.00 0.00 99 1019.9
20260902091753 72 215 0.0 0.0 0.00 0.00 0.00 99 1020.1
20260902091249 72 215 0.0 0.0 0.00 0.00 0.00 99 1019.9
20260902090746 72 215 0.0 0.0 0.00 0.00 0.00 99 1019.9
20260902090245 72 215 0.0 0.0 0.00 0.00 0.00 99 1019.8
20260902085739 72 215 0.0 0.0 0.00 0.00 0.00 99 1019.8
20260902085234 72 215 0.0 0.0 0.00 0.00 0.00 99 1019.8
20260902084730 72 215 0.0 0.0 0.00 0.00 0.00 99 1019.8
20260902084226 72 215 0.0 0.0 0.00 0.00 0.00 99 1019.7
20260902083721 72 215 0.0 0.0 0.00 0.00 0.00 99 1019.7
20260902083221 72 215 0.0 0.0 0.00 0.00 0.00 99 1019.6
20260902082716 72 215 0.0 0.0 0.00 0.00 0.00 99 1019.5
20260902082212 72 215 0.0 0.0 0.00 0.00 0.00 99 1019.4
20260902081708 72 215 0.0 0.0 0.00 0.00 0.00 99 1019.6
20260902081203 72 215 0.0 0.0 0.00 0.00 0.00 99 1019.5
20260902080658 72 215 0.0 0.0 0.00 0.00 0.00 99 1019.5
20260902080154 72 215 0.0 0.0 0.00 0.00 0.00 99 1019.4
20260902075649 73 215 0.0 0.0 0.00 0.00 0.00 99 1019.4
20260902075145 72 215 0.0 0.0 0.00 0.00 0.00 99 1019.4
20260902074639 72 215 0.0 0.0 0.00 0.00 0.00 99 1019.2
20260902074135 72 215 0.0 0.0 0.00 0.00 0.00 99 1019.3
20260902073630 73 215 0.0 0.0 0.00 0.00 0.00 99 1019.2
20260902073126 73 215 0.0 0.0 0.00 0.00 0.00 99 1019.3
20260902072622 73 215 0.0 0.0 0.00 0.00 0.00 99 1019.1
20260902072118 73 215 0.0 0.0 0.00 0.00 0.00 99 1019.3
20260902071613 73 215 0.0 0.0 0.00 0.00 0.00 99 1019.1
20260902071109 73 215 0.0 0.0 0.00 0.00 0.00 99 1019.1
20260902070605 73 215 0.0 0.0 0.00 0.00 0.00 99 1019.3
20260902070059 73 215 0.0 0.0 0.00 0.00 0.00 99 1019.4
20260902065558 73 215 0.0 0.0 0.00 0.00 0.00 99 1019.5
20260902065054 73 215 0.0 0.0 0.00 0.00 0.00 99 1019.6
20260902064549 73 215 0.0 0.0 0.00 0.00 0.00 99 1019.5
20260902064044 73 215 0.0 0.0 0.00 0.00 0.00 99 1019.5
20260902063539 73 215 0.0 0.0 0.00 0.00 0.00 99 1019.6
20260902063035 73 215 0.0 0.0 0.00 0.00 0.00 99 1019.6
20260902062533 73 215 0.0 0.0 0.00 0.00 0.00 99 1019.6
20260902062029 73 215 0.0 0.0 0.00 0.00 0.00 99 1019.7
20260902061528 73 215 0.0 0.0 0.00 0.00 0.00 99 1019.6
20260902061024 73 215 0.0 0.0 0.00 0.00 0.00 99 1019.7
20260902060521 73 215 0.0 0.0 0.00 0.00 0.00 99 1019.7
20260902060017 73 215 0.0 0.0 0.00 0.00 0.00 98 1019.7
20260902055512 73 215 0.0 0.0 0.00 0.00 0.00 98 1019.8
20260902055008 73 215 0.0 0.0 0.00 0.00 0.00 98 1019.6
20260902054508 73 215 0.0 0.0 0.00 0.00 0.00 98 1019.6
20260902054003 73 215 0.0 0.0 0.00 0.00 0.00 98 1019.7
20260902053458 74 215 0.0 0.0 0.00 0.00 0.00 98 1019.6
20260902052957 74 215 0.0 0.0 0.00 0.00 0.00 98 1019.7
20260902052452 74 206 0.0 0.0 0.00 0.00 0.00 98 1019.7
20260902051948 74 215 0.0 0.0 0.00 0.00 0.00 97 1019.7
20260902051443 74 215 0.0 0.0 0.00 0.00 0.00 97 1019.6
20260902050941 74 215 0.0 0.0 0.00 0.00 0.00 97 1019.7
20260902050441 74 215 0.0 0.0 0.00 0.00 0.00 97 1019.6
20260902045936 74 215 0.0 0.0 0.00 0.00 0.00 97 1019.8
20260902045432 74 215 0.0 0.0 0.00 0.00 0.00 97 1019.8
20260902044928 74 206 0.0 0.0 0.00 0.00 0.00 97 1019.7
20260902044423 74 215 0.0 0.0 0.00 0.00 0.00 97 1019.5
20260902043918 74 215 0.0 0.0 0.00 0.00 0.00 97 1019.7
20260902043408 74 215 0.0 0.0 0.00 0.00 0.00 96 1019.6
20260902042903 74 215 0.0 0.0 0.00 0.00 0.00 96 1019.5
20260902042402 75 215 0.0 0.0 0.00 0.00 0.00 96 1019.8
20260902041857 75 215 0.0 0.0 0.00 0.00 0.00 96 1019.7
20260902041352 75 215 0.0 0.0 0.00 0.00 0.00 96 1019.6
20260902040850 75 215 0.0 0.0 0.00 0.00 0.00 96 1019.7
20260902040346 75 206 0.0 0.0 0.00 0.00 0.00 96 1019.5
20260902035845 75 207 0.0 0.0 0.00 0.00 0.00 95 1019.7
20260902035340 75 207 0.0 0.0 0.00 0.00 0.00 95 1019.7
20260902034839 75 215 0.0 0.0 0.00 0.00 0.00 95 1019.8
20260902034335 76 215 0.0 0.0 0.00 0.00 0.00 95 1019.6
20260902033832 76 215 0.0 0.0 0.00 0.00 0.00 95 1019.7
20260902033327 76 214 0.0 0.0 0.00 0.00 0.00 95 1019.6
20260902032826 76 215 0.0 0.0 0.00 0.00 0.00 94 1019.5
20260902032316 76 215 0.0 0.0 0.00 0.00 0.00 94 1019.6
20260902031815 76 214 0.0 0.0 0.00 0.00 0.00 93 1019.5
20260902031311 76 215 0.0 0.0 0.00 0.00 0.00 93 1019.5
20260902030801 76 215 0.0 0.0 0.00 0.00 0.00 93 1019.4
20260902030256 76 215 0.0 0.0 0.00 0.00 0.00 93 1019.6
20260902025755 76 215 0.0 0.0 0.00 0.00 0.00 93 1019.4
20260902025250 77 215 0.0 0.0 0.00 0.00 0.00 93 1019.3
20260902024744 77 214 0.0 0.0 0.00 0.00 0.00 94 1019.4
20260902024240 77 214 0.0 0.0 0.00 0.00 0.00 93 1019.4
20260902023736 77 214 0.0 0.0 0.00 0.00 0.00 93 1019.4
20260902023231 77 207 0.0 0.0 0.00 0.00 0.00 93 1019.6
20260902022730 77 214 0.0 0.0 0.00 0.00 0.00 93 1019.4
20260902022226 77 214 0.0 0.0 0.00 0.00 0.00 92 1019.3
20260902021722 78 214 0.0 0.0 0.00 0.00 0.00 92 1019.4
20260902021221 78 214 0.0 0.0 0.00 0.00 0.00 92 1019.4
20260902020718 78 214 0.0 0.0 0.00 0.00 0.00 91 1019.4
20260902020213 78 214 0.0 0.0 0.00 0.00 0.00 91 1019.1
20260902015708 78 214 0.0 0.0 0.00 0.00 0.00 92 1019.2
20260902015205 78 214 0.0 0.0 0.00 0.00 0.00 91 1019.2
20260902014700 79 214 0.0 0.0 0.00 0.00 0.00 90 1019.4
20260902014156 78 214 0.0 0.0 0.00 0.00 0.00 90 1019.2
20260902013655 79 207 0.0 0.0 0.00 0.00 0.00 90 1019.3
20260902013150 79 214 0.0 0.0 0.00 0.00 0.00 90 1019.2
20260902012646 79 214 0.0 0.0 0.00 0.00 0.00 90 1019.1
20260902012141 80 214 0.0 0.0 0.00 0.00 0.00 89 1018.9
20260902011637 79 214 0.0 0.0 0.00 0.00 0.00 87 1018.9
20260902011131 80 214 0.0 0.0 0.00 0.00 0.00 87 1019.1
20260902010630 80 214 0.0 0.0 0.00 0.00 0.00 86 1019.0
20260902010127 80 214 0.0 0.0 0.00 0.00 0.00 87 1018.8
20260902005624 80 214 0.0 0.0 0.00 0.00 0.00 87 1018.8
20260902005120 81 214 0.0 0.0 0.00 0.00 0.00 87 1018.6
20260902004619 81 214 0.0 0.0 0.00 0.00 0.00 86 1018.7
20260902004109 81 214 0.0 0.0 0.00 0.00 0.00 86 1018.7
20260902003604 82 213 0.0 0.0 0.00 0.00 0.00 85 1018.7
20260902003100 82 213 0.0 0.0 0.00 0.00 0.00 84 1018.7
20260902002555 82 213 0.0 0.0 0.00 0.00 0.00 83 1018.7
20260902002050 83 213 0.0 0.0 0.00 0.00 0.00 82 1018.7
20260902001545 83 213 0.0 0.0 0.00 0.00 0.00 81 1018.8
20260902001039 84 208 0.0 0.0 0.00 0.00 0.00 81 1018.8
20260902000534 85 213 0.0 0.0 0.00 0.00 0.00 79 1018.9
20260902000029 85 213 0.0 0.0 0.00 0.00 0.00 77 1018.8
20260901235523 86 213 0.0 0.0 0.00 0.00 0.00 75 1018.8
20260901235019 87 213 0.0 0.0 0.00 0.00 0.00 74 1019.0
20260901234518 87 213 0.0 0.0 0.00 0.00 0.00 73 1018.9
20260901234014 88 213 0.0 0.0 0.00 0.00 0.00 72 1019.1
20260901233508 90 214 0.0 0.0 0.00 0.00 0.00 68 1018.8
20260901233005 92 214 0.0 0.0 0.00 0.00 0.00 64 1019.2
20260901232500 93 214 0.0 0.0 0.00 0.00 0.00 61 1019.1
20260901231954 94 215 0.0 0.0 0.00 0.00 0.00 57 1019.0
20260901231451 94 215 0.0 0.0 0.00 0.00 0.00 57 1019.2
20260901230948 95 215 0.0 0.0 0.00 0.00 0.00 54 1019.1
20260901230446 95 215 0.0 0.0 0.00 0.00 0.00 53 1019.1
20260901225942 95 215 0.0 0.0 0.00 0.00 0.00 53 1019.0
20260901225441 94 215 0.0 0.0 0.00 0.00 0.00 53 1019.1
20260901224937 94 215 0.0 1.7 0.00 0.00 0.00 51 1019.3
20260901224433 94 215 1.7 1.7 0.00 0.00 0.00 51 1018.9
20260901223929 95 215 0.9 1.7 0.00 0.00 0.00 51 1018.9
20260901223424 96 215 0.0 1.7 0.00 0.00 0.00 50 1019.0
20260901222920 96 215 0.0 0.0 0.00 0.00 0.00 50 1018.9
20260901222416 96 215 0.0 0.0 0.00 0.00 0.00 50 1019.1
20260901221912 96 215 0.0 0.0 0.00 0.00 0.00 49 1018.7
20260901221407 95 214 0.9 2.6 0.00 0.00 0.00 51 1019.0
20260901220902 97 215 0.0 0.9 0.00 0.00 0.00 48 1018.8
20260901220401 95 215 0.0 0.0 0.00 0.00 0.00 51 1019.0
20260901215900 95 215 0.9 2.6 0.00 0.00 0.00 50 1019.0
20260901215358 95 215 0.9 1.7 0.00 0.00 0.00 50 1019.0
20260901214852 95 213 1.7 3.5 0.00 0.00 0.00 48 1019.0
20260901214350 95 215 0.9 3.5 0.00 0.00 0.00 50 1019.1
20260901213845 94 215 0.9 3.5 0.00 0.00 0.00 50 1019.0
20260901213345 96 215 0.9 1.7 0.00 0.00 0.00 48 1018.9
20260901212839 95 215 1.7 3.5 0.00 0.00 0.00 49 1019.0
20260901212330 95 215 0.0 0.9 0.00 0.00 0.00 52 1019.0
20260901211826 96 215 0.0 0.0 0.00 0.00 0.00 49 1018.8
20260901211322 96 215 0.9 0.9 0.00 0.00 0.00 51 1018.7
20260901210817 95 215 0.0 0.9 0.00 0.00 0.00 49 1018.9
20260901210313 96 215 1.7 3.5 0.00 0.00 0.00 50 1019.0
20260901205809 96 215 0.9 1.7 0.00 0.00 0.00 48 1018.9
20260901205309 95 199 0.9 0.9 0.00 0.00 0.00 49 1019.0
20260901204803 96 219 1.7 3.5 0.00 0.00 0.00 49 1019.1
20260901204259 96 215 0.9 3.5 0.00 0.00 0.00 50 1019.1
20260901203754 95 216 1.7 3.5 0.00 0.00 0.00 49 1019.2
20260901203253 94 215 0.9 3.5 0.00 0.00 0.00 48 1019.3
20260901202747 94 215 0.9 1.7 0.00 0.00 0.00 51 1019.5
20260901202243 95 215 0.9 3.5 0.00 0.00 0.00 50 1019.6
20260901201739 93 215 1.7 3.5 0.00 0.00 0.00 52 1019.3
20260901201238 94 213 1.7 5.2 0.00 0.00 0.00 52 1019.6
20260901200738 94 215 0.9 2.6 0.00 0.00 0.00 50 1019.5
20260901200234 94 215 0.9 2.6 0.00 0.00 0.00 51 1019.7
20260901195732 93 208 0.0 0.9 0.00 0.00 0.00 52 1019.6
20260901195225 94 213 0.0 0.9 0.00 0.00 0.00 51 1019.9
20260901194721 94 213 0.0 1.7 0.00 0.00 0.00 53 1019.6
20260901194216 93 216 1.7 5.2 0.00 0.00 0.00 51 1019.5
20260901193712 93 208 0.0 3.5 0.00 0.00 0.00 52 1019.8
20260901193207 94 213 0.9 2.6 0.00 0.00 0.00 54 1019.9
20260901192706 94 213 3.5 5.2 0.00 0.00 0.00 52 1019.8
20260901192201 94 215 2.6 5.2 0.00 0.00 0.00 51 1019.7
20260901191657 96 213 1.7 2.6 0.00 0.00 0.00 54 1019.8
20260901191153 95 213 0.0 1.7 0.00 0.00 0.00 52 1020.1
20260901190649 94 212 1.7 1.7 0.00 0.00 0.00 52 1020.1
20260901190148 93 212 0.0 0.9 0.00 0.00 0.00 53 1020.2
20260901185647 92 213 0.0 0.0 0.00 0.00 0.00 52 1020.4
20260901185145 93 213 0.9 5.2 0.00 0.00 0.00 55 1020.4
20260901184641 93 212 0.0 0.9 0.00 0.00 0.00 53 1020.3
20260901184136 92 213 1.7 5.2 0.00 0.00 0.00 56 1020.3
20260901183632 92 212 0.0 1.7 0.00 0.00 0.00 57 1020.3
20260901183127 91 212 0.0 1.7 0.00 0.00 0.00 60 1020.4
20260901182623 91 212 0.0 1.7 0.00 0.00 0.00 62 1020.4
20260901182122 91 212 0.0 1.7 0.00 0.00 0.00 59 1020.3
20260901181622 91 212 0.0 1.7 0.00 0.00 0.00 58 1020.5
20260901181121 91 212 1.7 2.6 0.00 0.00 0.00 59 1020.4
20260901180616 91 212 0.0 5.2 0.00 0.00 0.00 59 1020.5
20260901180110 90 212 1.7 6.1 0.00 0.00 0.00 62 1020.6
20260901175609 90 212 2.6 6.1 0.00 0.00 0.00 59 1020.8
20260901175104 91 212 2.6 6.1 0.00 0.00 0.00 61 1020.7
20260901174600 90 212 0.9 2.6 0.00 0.00 0.00 61 1020.9
20260901174055 91 212 2.6 2.6 0.00 0.00 0.00 59 1020.6
20260901173549 90 212 2.6 2.6 0.00 0.00 0.00 59 1020.8
20260901173045 90 212 0.9 1.7 0.00 0.00 0.00 60 1021.0
20260901172541 90 212 0.9 3.5 0.00 0.00 0.00 61 1021.1
20260901172038 90 212 1.7 3.5 0.00 0.00 0.00 61 1021.2
20260901171533 90 212 1.7 2.6 0.00 0.00 0.00 62 1021.1
20260901171032 90 212 0.9 6.1 0.00 0.00 0.00 60 1021.3
20260901170531 89 212 1.7 3.5 0.00 0.00 0.00 62 1021.2
20260901170026 89 211 1.7 2.6 0.00 0.00 0.00 60 1021.3
20260901165521 89 211 0.9 2.6 0.00 0.00 0.00 61 1021.5
20260901165016 90 212 2.6 2.6 0.00 0.00 0.00 63 1021.5
20260901164512 89 211 0.0 0.0 0.00 0.00 0.00 65 1021.6
20260901164006 89 211 0.0 1.7 0.00 0.00 0.00 63 1021.6
20260901163502 89 211 0.0 1.7 0.00 0.00 0.00 64 1021.7
20260901163000 89 212 0.9 1.7 0.00 0.00 0.00 64 1021.7
20260901162456 88 211 0.0 1.7 0.00 0.00 0.00 68 1021.8